#timestamp,LO_Frequency,Hit,StdDev 
1507129215.9,286047000.9,N
1507129235.7,286047000.7,N
1507129255.6,286047000.5,N
1507129275.4,286046998.1,N
1507129295.2,286047000.2,N
1507129315.1,286047001.2,N
1507129316.0,286047001.2,N
1507129335.8,286047002.5,N
1507129355.6,286046998.8,N
1507129375.5,286047000.1,N
1507129395.3,286047003.9,N
1507129415.1,286046999.7,N
1507129435.8,286047001.8,N
1507129455.7,286047002.6,N
1507129475.5,286047001.0,N
1507129495.3,286046997.8,N
1507129515.2,286046996.2,N
1507129535.9,286046998.9,N
1507129555.7,286047001.1,N
1507129575.6,286046994.9,Y
1507129595.4,286046991.8,P
1507129615.2,286046993.4,N
1507129635.1,286046993.6,N
1507129636.0,286046993.6,N
1507129655.8,286046996.3,N
1507129675.6,286046995.5,N
1507129695.5,286046997.1,N
1507129715.3,286046996.0,N
1507129735.1,286046994.1,N
1507129755.9,286046991.9,Y
1507129775.7,286046996.8,P
1507129795.5,286047001.8,N
1507129815.4,286047000.5,N
1507129835.2,286047001.4,N
1507129855.0,286046998.7,N
1507129855.9,286046998.7,N
1507129875.8,286046997.8,N
1507129895.6,286046998.9,N
1507129915.4,286046995.3,N
1507129935.3,286046997.4,N
1507129955.1,286046998.8,N
1507129956.0,286046998.8,N
1507129975.8,286046998.8,N
1507129995.6,286047002.6,N
1507130015.5,286047001.2,N
1507130035.3,286046996.8,N
1507130055.1,286046997.5,N
1507130075.9,286046996.3,N
1507130095.7,286046995.5,N
1507130115.5,286046996.9,N
1507130135.4,286047001.2,N
1507130155.2,286046999.1,N
1507130175.0,286046999.3,N
1507130175.9,286046999.3,N
1507130195.8,286047000.3,N
1507130215.6,286047001.3,N
1507130235.4,286046999.6,N
1507130255.3,286046998.0,N
1507130275.1,286046996.2,N
1507130276.0,286046996.2,N
1507130295.8,286046995.5,N
1507130315.7,286046997.8,N
1507130335.5,286046997.8,N
1507130355.3,286046996.4,N
1507130375.2,286046993.5,Y
1507130395.9,286046993.8,P
1507130415.7,286046995.9,N
1507130435.6,286046994.0,P
1507130455.4,286046995.2,N
1507130475.2,286046996.8,N
1507130495.0,286046995.7,N
1507130496.0,286046995.7,Y
1507130515.8,286047002.8,P
1507130535.6,286047004.2,N
1507130555.4,286047005.9,N
1507130575.3,286047004.7,N
1507130595.1,286047000.1,N
1507130615.8,286047004.3,N
1507130635.7,286047007.6,N
1507130655.5,286047006.3,N
1507130675.3,286047001.9,N
1507130695.2,286047002.5,N
1507130715.9,286047003.3,N
1507130735.7,286047005.4,N
1507130755.6,286047004.9,N
1507130775.4,286047003.8,N
1507130795.2,286047006.4,N
1507130815.1,286047004.4,N
1507130816.0,286047004.4,N
1507130835.8,286047001.3,N
1507130855.6,286047004.2,N
1507130875.4,286047005.2,N
1507130895.3,286047001.3,N
1507130915.1,286047002.8,N
1507130935.8,286047005.8,N
1507130955.7,286047007.3,N
1507130975.5,286047010.6,Y
1507130995.3,286047006.7,P
1507131015.2,286047002.3,N
1507131035.0,286047000.8,N
1507131035.9,286047000.8,N
1507131055.7,286047000.7,N
1507131075.6,286047000.0,N
1507131095.4,286046998.9,N
1507131115.2,286047002.6,N
1507131135.1,286047000.9,N
1507131136.0,286047000.9,N
1507131155.8,286046999.4,N
1507131175.6,286046999.7,N
1507131195.5,286047000.6,N
1507131215.3,286047000.0,N
1507131235.1,286047003.5,N
1507131255.9,286047003.2,N
1507131275.7,286047006.0,Y
1507131295.5,286047001.3,P
1507131315.4,286047001.9,P
1507131335.2,286047002.7,P
1507131355.0,286047000.7,N
1507131355.9,286047000.7,N
1507131375.8,286046999.9,N
1507131395.6,286047000.2,N
1507131415.4,286046998.2,N
1507131435.2,286046997.9,N
1507131455.1,286046996.7,N
1507131456.0,286046996.7,N
1507131475.8,286046997.9,N
1507131495.6,286046995.0,N
1507131515.5,286046996.7,N
1507131535.3,286046997.5,N
1507131555.1,286046997.7,N
1507131575.9,286046997.1,N
1507131595.7,286046998.1,N
1507131615.5,286046999.6,N
1507131635.4,286046995.6,N
1507131655.2,286046995.1,N
1507131675.0,286046996.1,N
1507131675.9,286046996.1,N
1507131695.8,286046995.9,N
1507131715.6,286046990.2,Y
1507131735.4,286046995.9,P
1507131755.3,286046998.5,N
1507131775.1,286046998.7,N
1507131776.0,286046998.7,N
1507131795.8,286047001.2,N
1507131815.7,286046996.0,N
1507131835.5,286046995.7,N
1507131855.3,286046995.6,N
1507131875.1,286046996.6,N
1507131895.9,286046995.2,N
1507131915.7,286046993.3,Y
1507131935.5,286046999.0,P
1507131955.4,286046995.3,P
1507131975.2,286046995.8,N
1507131995.0,286046992.3,Y
1507131996.0,286046992.3,P
1507132015.8,286046997.7,N
1507132035.6,286047000.5,N
1507132055.4,286047002.7,N
1507132075.3,286047002.2,N
1507132095.1,286047001.0,N
1507132115.8,286046999.3,N
1507132135.7,286047002.8,N
1507132155.5,286046999.9,N
1507132175.3,286046999.2,N
1507132195.2,286046997.2,N
1507132215.9,286047001.1,N
1507132235.7,286046997.8,N
1507132255.6,286046994.2,N
1507132275.4,286046996.1,N
1507132295.2,286046995.6,N
1507132315.0,286046996.7,N
1507132316.0,286046996.7,N
1507132335.8,286046997.9,N
1507132355.6,286046999.6,N
1507132375.4,286046995.7,N
1507132395.3,286046996.5,N
1507132415.1,286046999.1,N
1507132435.8,286046996.7,N
1507132455.7,286046998.2,N
1507132475.5,286047002.3,N
1507132495.3,286046999.0,N
1507132515.2,286046998.4,N
1507132535.9,286046994.6,N
1507132555.7,286046994.7,N
1507132575.6,286046994.5,N
1507132595.4,286046995.8,N
1507132615.2,286046990.5,Y
1507132635.1,286046993.5,P
1507132636.0,286046993.5,N
1507132655.8,286046993.5,N
1507132675.6,286046990.2,Y
1507132695.5,286046997.7,P
1507132715.3,286046997.2,N
1507132735.1,286046997.8,N
1507132755.9,286046995.4,Y
1507132775.7,286046998.9,P
1507132795.5,286046998.9,N
